Home   Weather   Oranjestad   Past weeks

Flag for Aruba Past Weather in Oranjestad, Aruba — Yesterday and Last 2 Weeks

Now
81 °F

Passing clouds.


Feels Like: 86 °F
Forecast: N/A
Wind: 9 mph from Northeast

Location: Queen Beatrix Airport - Aruba

Current Time: Jan 24, 2017 at 7:36:17 pm

Latest Report: Jan 24, 2017 at 7:00 pm


Visibility: N/A

Pressure: 29.89 "Hg

Humidity: 84%

Dew Point: 75 °F

Location of OranjestadLocation

Past Weather in Oranjestad — Graph

°F

Oranjestad Temperature Yesterday

Maximum temperature yesterday: 84 °F (at 10:00 am)
Minimum temperature yesterday: 75 °F (at 3:00 am)
Average temperature yesterday: 80 °F

High & Low Weather Summary for the Past Weeks

 TemperatureHumidityPressure
High86 °F (Jan 22, 2:00 pm)94% (Jan 10, 2:00 am)30.01 "Hg (Jan 10, 2:00 am)
Low72 °F (Jan 15, 8:00 pm)58% (Jan 13, 1:00 pm)29.86 "Hg (Jan 10, 3:00 pm)
Average79 °F77%29.93 "Hg
* Reported Jan 9 6:00 pm — Jan 24 6:00 pm, Oranjestad, Weather by CustomWeather, © 2017

Note: Actual official high and low records may vary slightly from our data, if they occured in-between our weather recording intervals... More about our weather records

Advertising

Oranjestad Weather History for the Previous 24 Hours

Scroll right to see more
 ConditionsComfort  
Time TempWeatherWind HumidityBarometerVisibility
6:00 pm
Tue, Jan 24
82 °FPassing clouds.9 mph79%29.89 "HgN/A
5:00 pm84 °FScattered clouds.9 mph74%29.86 "HgN/A
4:00 pm84 °FScattered clouds.7 mph79%29.89 "HgN/A
3:00 pm86 °FScattered clouds.8 mph75%29.89 "HgN/A
2:00 pm84 °FScattered clouds.8 mph79%29.92 "HgN/A
1:00 pm82 °FScattered clouds.12 mph84%29.92 "HgN/A
12:00 pm82 °FScattered clouds.13 mph84%29.95 "HgN/A
11:00 am82 °FPassing clouds.13 mph84%29.95 "HgN/A
10:00 am82 °FScattered clouds.12 mph84%29.95 "HgN/A
9:00 am81 °FScattered clouds.12 mph84%29.95 "HgN/A
8:00 am79 °FPassing clouds.7 mph89%29.92 "HgN/A
7:00 am79 °FPassing clouds.8 mph84%29.89 "HgN/A
6:00 am79 °FPassing clouds.12 mph89%29.89 "HgN/A
5:00 am77 °FPassing clouds.7 mph89%29.86 "HgN/A
4:00 am77 °FPassing clouds.7 mph89%29.86 "HgN/A
1:00 am79 °FPassing clouds.9 mph84%29.92 "HgN/A
11:00 pm
Mon, Jan 23
79 °FPassing clouds.9 mph84%29.92 "HgN/A
10:00 pm79 °FPassing clouds.9 mph84%29.92 "HgN/A
9:00 pm79 °FPassing clouds.9 mph84%29.89 "HgN/A
8:00 pm79 °FPassing clouds.9 mph84%29.89 "HgN/A
7:00 pm81 °FPassing clouds.10 mph79%29.86 "HgN/A
Weather by CustomWeather, © 2017

See weather overviewHow to use our weather pages